Tracking 27188 objects as of 1-Apr-2023
HD Live streaming from Space Station
objects crossing your sky now

STARLINK-4787

Track STARLINK-4787 now!
10-day predictions
STARLINK-4787 is classified as:


NORAD ID: 53904
Int'l Code: 2022-119U
Perigee: 545.9 km
Apogee: 547.9 km
Inclination: 53.2 °
Period: 95.4 minutes
Semi major axis: 6917 km
RCS: Unknown
Launch date: September 24, 2022
Source: United States (US)
Launch site: AIR FORCE EASTERN TEST RANGE (AFETR)
Your satellite tracking list
Your tracking list is empty




NASA's NSSDC Master Catalog

Two Line Element Set (TLE):
1 53904U 22119U   23091.29197920  .00001094  00000-0  86840-4 0  9994
2 53904  53.2164 102.3923 0001460  84.9939 275.1220 15.08839265 29644
Source of the keplerian elements: AFSPC